Arden, NC

11:39 AM EST on February 27, 2017 (GMT -0500)
Asheville Regional

Weather History for KAVL - January, 2013

Change the Weather History Date:

Saturday, January 12, 2013

  Actual Average Record
Temperature  
Mean Temperature 62 °F 37 °F  
Max Temperature 70 °F 47 °F 70 °F (1898)
Min Temperature 53 °F 26 °F -1 °F (1918)
Degree Days  
Heating Degree Days 3 28  
Month to date heating degree days 257 336  
Since 1 July heating degree days 1814 1997  
Cooling Degree Days 0 0  
Month to date cooling degree days 0 0  
Year to date cooling degree days 0 0  
Growing Degree Days 12 (Base 50)    
Moisture  
Dew Point 56 °F    
Average Humidity 84    
Maximum Humidity 100    
Minimum Humidity 68    
Precipitation  
Precipitation T in 0.12 in 2.32 in (1879)
Month to date precipitation 0.84 1.36  
Year to date precipitation 0.84 1.36  
Snow  
Snow 0.00 in 0.10 in 2.50 in (1893)
Month to date snowfall 0.0 1.4  
Since 1 July snowfall T 2.4  
Snow Depth 0.00 in    
Sea Level Pressure  
Sea Level Pressure 30.12 in    
Wind  
Wind Speed 5 mph (SW)    
Max Wind Speed 12 mph    
Max Gust Speed 15 mph    
Visibility 8 miles    
Events Rain    
T = Trace of Precipitation, MM = Missing Value Source: NWS Daily Summary

Daily Weather History Graph

Daily Weather History Graph

Search for Another Location

Airport or City:

Trip Planner

Search our weather history database for the weather conditions in past years. The results will help you decide how hot, cold, wet, or windy it might be!

Date:

Astronomy

Jan. 12, 2013 Rise Set
Actual Time 7:39 AM EST 5:38 PM EST
Civil Twilight 7:11 AM EST 6:06 PM EST
Nautical Twilight 6:40 AM EST 6:37 PM EST
Astronomical Twilight 6:09 AM EST 7:08 PM EST
Moon 8:00 AM EST (1/12) 7:01 PM EST (1/12)
Length of Visible Light 10h 54m
Length of Day
9h 58m
New Moon, 1% of the Moon is Illuminated
Jan 12
New Moon
Jan 18
First Quarter
Jan 26
Full
Feb 3
Last Quarter
Feb 10
New

Hourly Weather History & Observations

Time (EST) Temp. Dew Point Humidity Pressure Visibility Wind Dir Wind Speed Gust Speed Precip Events Conditions
12:30 AM 57.2 °F 57.2 °F 100% 30.17 in 10.0 mi SE 5.8 mph - N/A   Overcast
12:54 AM 57.0 °F 57.0 °F 100% 30.14 in 10.0 mi SE 4.6 mph - N/A   Overcast
1:54 AM 57.9 °F 57.0 °F 97% 30.12 in 10.0 mi SSE 8.1 mph - N/A   Overcast
2:54 AM 59.0 °F 57.0 °F 93% 30.13 in 10.0 mi Calm Calm - N/A   Overcast
3:01 AM 59.0 °F 57.2 °F 94% 30.16 in 10.0 mi Calm Calm - N/A   Mostly Cloudy
3:54 AM 57.9 °F 57.0 °F 97% 30.12 in 10.0 mi Calm Calm - N/A   Partly Cloudy
4:06 AM 55.4 °F 55.4 °F 100% 30.15 in 2.5 mi NNW 5.8 mph - N/A   Partly Cloudy
4:09 AM 55.4 °F 53.6 °F 94% 30.15 in 1.2 mi Calm Calm - N/A   Partly Cloudy
4:18 AM 55.4 °F 55.4 °F 100% 30.15 in 2.0 mi Calm Calm - N/A   Partly Cloudy
4:24 AM 55.4 °F 55.4 °F 100% 30.15 in 10.0 mi Calm Calm - N/A   Scattered Clouds
4:54 AM 55.9 °F 55.9 °F 100% 30.12 in 10.0 mi NNW 3.5 mph - N/A   Overcast
5:42 AM 53.6 °F 53.6 °F 100% 30.14 in 6.0 mi NNW 5.8 mph - N/A   Mostly Cloudy
5:52 AM 53.6 °F 53.6 °F 100% 30.14 in 3.0 mi NNW 4.6 mph - N/A   Mostly Cloudy
5:54 AM 54.0 °F 54.0 °F 100% 30.12 in 1.8 mi NNW 3.5 mph - N/A   Mostly Cloudy
6:01 AM 53.6 °F 53.6 °F 100% 30.14 in 1.2 mi Calm Calm - N/A   Mostly Cloudy
6:04 AM 55.4 °F 53.6 °F 94% 30.14 in 2.0 mi Calm Calm - N/A   Mostly Cloudy
6:11 AM 55.4 °F 53.6 °F 94% 30.15 in 10.0 mi Calm Calm - N/A   Mostly Cloudy
6:54 AM 54.0 °F 53.1 °F 97% 30.13 in 10.0 mi NNW 3.5 mph - N/A   Overcast
7:54 AM 54.0 °F 54.0 °F 100% 30.14 in 10.0 mi NNW 4.6 mph - N/A   Overcast
8:54 AM 55.0 °F 55.0 °F 100% 30.15 in 10.0 mi NNW 4.6 mph - N/A   Overcast
9:54 AM 57.9 °F 57.0 °F 97% 30.16 in 10.0 mi NNW 8.1 mph - 0.00 in   Overcast
10:54 AM 60.1 °F 57.9 °F 93% 30.16 in 10.0 mi NNW 5.8 mph - 0.00 in   Overcast
11:54 AM 64.9 °F 59.0 °F 81% 30.12 in 10.0 mi Calm Calm - 0.00 in Rain Light Rain
12:54 PM 66.0 °F 59.0 °F 78% 30.09 in 10.0 mi Calm Calm - 0.00 in   Overcast
1:54 PM 68.0 °F 59.0 °F 73% 30.09 in 10.0 mi Calm Calm - N/A   Overcast
2:54 PM 69.1 °F 60.1 °F 73% 30.07 in 10.0 mi SSE 6.9 mph - 0.00 in   Scattered Clouds
3:54 PM 69.1 °F 59.0 °F 70% 30.07 in 10.0 mi SSE 9.2 mph - N/A   Clear
4:54 PM 68.0 °F 57.9 °F 70% 30.08 in 10.0 mi South 11.5 mph - N/A   Clear
5:54 PM 64.0 °F 57.9 °F 80% 30.09 in 10.0 mi South 8.1 mph - N/A   Clear
6:54 PM 61.0 °F 55.9 °F 83% 30.10 in 10.0 mi South 8.1 mph - N/A   Clear
7:54 PM 59.0 °F 55.4 °F 88% 30.13 in 10.0 mi South 8.1 mph - N/A   Clear
8:54 PM 57.9 °F 55.0 °F 90% 30.10 in 10.0 mi South 6.9 mph - N/A   Clear
9:54 PM 57.0 °F 55.0 °F 93% 30.09 in 10.0 mi SSE 5.8 mph - N/A   Scattered Clouds
10:54 PM 55.0 °F 54.0 °F 96% 30.09 in 8.0 mi Calm Calm - N/A   Mostly Cloudy
11:54 PM 54.0 °F 53.1 °F 97% 30.08 in 9.0 mi Calm Calm - N/A   Partly Cloudy